Time,TemperatureF,DewpointF,PressureIn,WindDirection,WindDirectionDegrees,WindSpeedMPH,WindSpeedGustMPH,Humidity,HourlyPrecipIn,Conditions,Clouds,dailyrainin,SoftwareType,DateUTC
2013-10-11 00:02:00,37.0,34.0,-100.00,WSW,249,4.0,11.0,89,0.00,,,0.59,,2013-10-11 00:02:00,
2013-10-11 00:11:00,37.0,34.0,-100.00,WSW,249,4.0,11.0,89,0.00,,,0.59,,2013-10-11 00:11:00,
2013-10-11 00:42:00,36.0,34.0,-100.00,WSW,253,2.0,10.0,92,0.00,,,0.59,,2013-10-11 00:42:00,
2013-10-11 00:52:00,36.0,34.0,-100.00,WSW,253,2.0,10.0,92,0.00,,,0.59,,2013-10-11 00:52:00,
2013-10-11 01:01:00,36.0,34.0,-100.00,WSW,253,2.0,10.0,92,0.00,,,0.59,,2013-10-11 01:01:00,
2013-10-11 01:11:00,36.0,34.0,-100.00,WSW,253,2.0,10.0,92,0.00,,,0.59,,2013-10-11 01:11:00,
2013-10-11 01:42:00,36.0,34.0,-100.00,SW,224,3.0,7.0,93,0.00,,,0.59,,2013-10-11 01:42:00,
2013-10-11 01:52:00,36.0,34.0,-100.00,SW,224,3.0,7.0,93,0.00,,,0.59,,2013-10-11 01:52:00,
2013-10-11 02:02:00,36.0,34.0,-100.00,SW,224,3.0,7.0,93,0.00,,,0.59,,2013-10-11 02:02:00,
2013-10-11 02:12:00,36.0,34.0,-100.00,SW,224,3.0,7.0,93,0.00,,,0.59,,2013-10-11 02:12:00,
2013-10-11 02:42:00,34.0,32.0,-100.00,SSE,150,2.0,6.0,93,0.00,,,0.59,,2013-10-11 02:42:00,
2013-10-11 02:52:00,34.0,32.0,-100.00,SSE,150,2.0,6.0,93,0.00,,,0.59,,2013-10-11 02:52:00,
2013-10-11 03:02:00,34.0,32.0,-100.00,SSE,150,2.0,6.0,93,0.00,,,0.59,,2013-10-11 03:02:00,
2013-10-11 03:11:00,34.0,32.0,-100.00,SSE,150,2.0,6.0,93,0.00,,,0.59,,2013-10-11 03:11:00,
2013-10-11 03:45:00,33.0,32.0,-100.00,ESE,118,1.0,5.0,95,0.00,,,0.59,,2013-10-11 03:45:00,
2013-10-11 03:54:00,33.0,32.0,-100.00,ESE,118,1.0,5.0,95,0.00,,,0.59,,2013-10-11 03:54:00,
2013-10-11 04:04:00,33.0,32.0,-100.00,ESE,118,1.0,5.0,95,0.00,,,0.59,,2013-10-11 04:04:00,
2013-10-11 04:13:00,33.0,32.0,-100.00,ESE,118,1.0,5.0,95,0.00,,,0.59,,2013-10-11 04:13:00,
2013-10-11 04:44:00,30.0,29.0,-100.00,SSE,149,1.0,3.0,96,0.00,,,0.59,,2013-10-11 04:44:00,
2013-10-11 04:53:00,30.0,29.0,-100.00,SSE,149,1.0,3.0,96,0.00,,,0.59,,2013-10-11 04:53:00,
2013-10-11 05:03:00,30.0,29.0,-100.00,SSE,149,1.0,3.0,96,0.00,,,0.59,,2013-10-11 05:03:00,
2013-10-11 05:13:00,30.0,29.0,-100.00,SSE,149,1.0,3.0,96,0.00,,,0.59,,2013-10-11 05:13:00,
2013-10-11 05:43:00,29.0,28.0,-100.00,SSE,150,0.0,0.0,97,0.00,,,0.59,,2013-10-11 05:43:00,
2013-10-11 05:52:00,29.0,28.0,-100.00,SSE,150,0.0,0.0,97,0.00,,,0.59,,2013-10-11 05:52:00,
2013-10-11 06:02:00,29.0,28.0,-100.00,SSE,150,0.0,0.0,97,0.00,,,0.59,,2013-10-11 06:02:00,
2013-10-11 06:12:00,29.0,28.0,-100.00,SSE,150,0.0,0.0,97,0.00,,,0.59,,2013-10-11 06:12:00,
2013-10-11 06:43:00,28.0,27.0,-100.00,SSE,150,0.0,0.0,97,0.00,,,0.59,,2013-10-11 06:43:00,
2013-10-11 06:52:00,28.0,27.0,-100.00,SSE,150,0.0,0.0,97,0.00,,,0.59,,2013-10-11 06:52:00,
2013-10-11 07:02:00,28.0,27.0,-100.00,SSE,150,0.0,0.0,97,0.00,,,0.59,,2013-10-11 07:02:00,
2013-10-11 07:11:00,28.0,27.0,-100.00,SSE,150,0.0,0.0,97,0.00,,,0.59,,2013-10-11 07:11:00,
2013-10-11 07:42:00,27.0,26.0,-100.00,SSE,150,0.0,0.0,97,0.00,,,0.59,,2013-10-11 07:42:00,
2013-10-11 07:52:00,27.0,26.0,-100.00,SSE,150,0.0,0.0,97,0.00,,,0.59,,2013-10-11 07:52:00,
2013-10-11 08:02:00,27.0,26.0,-100.00,SSE,150,0.0,0.0,97,0.00,,,0.59,,2013-10-11 08:02:00,
2013-10-11 08:11:00,27.0,26.0,-100.00,SSE,150,0.0,0.0,97,0.00,,,0.59,,2013-10-11 08:11:00,
2013-10-11 08:42:00,26.0,25.0,-100.00,SSE,150,0.0,0.0,97,0.00,,,0.59,,2013-10-11 08:42:00,
2013-10-11 08:52:00,26.0,25.0,-100.00,SSE,150,0.0,0.0,97,0.00,,,0.59,,2013-10-11 08:52:00,
2013-10-11 09:01:00,26.0,25.0,-100.00,SSE,150,0.0,0.0,97,0.00,,,0.59,,2013-10-11 09:01:00,
2013-10-11 09:12:00,26.0,25.0,-100.00,SSE,150,0.0,0.0,97,0.00,,,0.59,,2013-10-11 09:12:00,
2013-10-11 09:43:00,26.0,25.0,-100.00,SSE,150,0.0,0.0,96,0.00,,,0.59,,2013-10-11 09:43:00,
2013-10-11 09:54:00,26.0,25.0,-100.00,SSE,150,0.0,0.0,96,0.00,,,0.59,,2013-10-11 09:54:00,
2013-10-11 10:03:00,26.0,25.0,-100.00,SSE,150,0.0,0.0,96,0.00,,,0.59,,2013-10-11 10:03:00,
2013-10-11 10:12:00,26.0,25.0,-100.00,SSE,150,0.0,0.0,96,0.00,,,0.59,,2013-10-11 10:12:00,
2013-10-11 10:43:00,27.0,26.0,-100.00,SSE,150,0.0,0.0,96,0.00,,,0.59,,2013-10-11 10:43:00,
2013-10-11 10:53:00,27.0,26.0,-100.00,SSE,150,0.0,0.0,96,0.00,,,0.59,,2013-10-11 10:53:00,
2013-10-11 11:02:00,27.0,26.0,-100.00,SSE,150,0.0,0.0,96,0.00,,,0.59,,2013-10-11 11:02:00,
2013-10-11 11:12:00,27.0,26.0,-100.00,SSE,150,0.0,0.0,96,0.00,,,0.59,,2013-10-11 11:12:00,
2013-10-11 11:42:00,25.0,24.0,-100.00,SSE,150,0.0,0.0,95,0.00,,,-99.99,,2013-10-11 11:42:00,
2013-10-11 11:52:00,25.0,24.0,-100.00,SSE,150,0.0,0.0,95,0.00,,,-99.99,,2013-10-11 11:52:00,
2013-10-11 12:02:00,25.0,24.0,-100.00,SSE,150,0.0,0.0,95,0.00,,,-99.99,,2013-10-11 12:02:00,
2013-10-11 12:11:00,25.0,24.0,-100.00,SSE,150,0.0,0.0,95,0.00,,,-99.99,,2013-10-11 12:11:00,
2013-10-11 12:42:00,27.0,26.0,-100.00,SSE,150,0.0,0.0,96,0.00,,,-99.99,,2013-10-11 12:42:00,
2013-10-11 12:52:00,27.0,26.0,-100.00,SSE,150,0.0,0.0,96,0.00,,,-99.99,,2013-10-11 12:52:00,
2013-10-11 13:01:00,27.0,26.0,-100.00,SSE,150,0.0,0.0,96,0.00,,,-99.99,,2013-10-11 13:01:00,
2013-10-11 13:12:00,27.0,26.0,-100.00,SSE,150,0.0,0.0,96,0.00,,,-99.99,,2013-10-11 13:12:00,
2013-10-11 13:43:00,27.0,26.0,-100.00,SSE,150,0.0,0.0,96,0.00,,,-99.99,,2013-10-11 13:43:00,
2013-10-11 13:53:00,27.0,26.0,-100.00,SSE,150,0.0,0.0,96,0.00,,,-99.99,,2013-10-11 13:53:00,
2013-10-11 14:02:00,27.0,26.0,-100.00,SSE,150,0.0,0.0,96,0.00,,,-99.99,,2013-10-11 14:02:00,
2013-10-11 14:11:00,27.0,26.0,-100.00,SSE,150,0.0,0.0,96,0.00,,,-99.99,,2013-10-11 14:11:00,
2013-10-11 14:42:00,29.0,28.0,-100.00,SSE,150,0.0,0.0,97,0.00,,,0.59,,2013-10-11 14:42:00,
2013-10-11 14:52:00,29.0,28.0,-100.00,SSE,150,0.0,0.0,97,0.00,,,0.59,,2013-10-11 14:52:00,
2013-10-11 15:02:00,29.0,28.0,-100.00,SSE,150,0.0,0.0,97,0.00,,,0.59,,2013-10-11 15:02:00,
2013-10-11 15:11:00,29.0,28.0,-100.00,SSE,150,0.0,0.0,97,0.00,,,0.59,,2013-10-11 15:11:00,
2013-10-11 15:54:00,40.0,38.0,-100.00,ESE,102,3.0,7.0,91,0.01,,,0.60,,2013-10-11 15:54:00,
2013-10-11 16:04:00,40.0,38.0,-100.00,ESE,102,3.0,7.0,91,0.01,,,0.60,,2013-10-11 16:04:00,
2013-10-11 16:13:00,40.0,38.0,-100.00,ESE,102,3.0,7.0,91,0.01,,,0.60,,2013-10-11 16:13:00,
2013-10-11 16:53:00,45.0,37.0,-100.00,East,99,4.0,9.0,72,0.00,,,0.60,,2013-10-11 16:53:00,
2013-10-11 17:03:00,45.0,37.0,-100.00,East,99,4.0,9.0,72,0.00,,,0.60,,2013-10-11 17:03:00,
2013-10-11 17:12:00,45.0,37.0,-100.00,East,99,4.0,9.0,72,0.00,,,0.60,,2013-10-11 17:12:00,
2013-10-11 17:43:00,49.0,37.0,-100.00,ENE,66,5.0,9.0,63,0.00,,,0.60,,2013-10-11 17:43:00,
2013-10-11 17:53:00,49.0,37.0,-100.00,ENE,66,5.0,9.0,63,0.00,,,0.60,,2013-10-11 17:53:00,
2013-10-11 18:02:00,49.0,37.0,-100.00,ENE,66,5.0,9.0,63,0.00,,,0.60,,2013-10-11 18:02:00,
2013-10-11 18:12:00,49.0,37.0,-100.00,ENE,66,5.0,9.0,63,0.00,,,0.60,,2013-10-11 18:12:00,
2013-10-11 18:43:00,52.0,36.0,-100.00,ESE,105,4.0,11.0,54,0.00,,,0.37,,2013-10-11 18:43:00,
2013-10-11 18:53:00,52.0,36.0,-100.00,ESE,105,4.0,11.0,54,0.00,,,0.37,,2013-10-11 18:53:00,
2013-10-11 19:02:00,52.0,36.0,-100.00,ESE,105,4.0,11.0,54,0.00,,,0.37,,2013-10-11 19:02:00,
2013-10-11 19:11:00,52.0,36.0,-100.00,ESE,105,4.0,11.0,54,0.00,,,0.37,,2013-10-11 19:11:00,
2013-10-11 19:43:00,54.0,35.0,-100.00,NNW,345,4.0,13.0,48,0.00,,,0.20,,2013-10-11 19:43:00,
2013-10-11 19:52:00,54.0,35.0,-100.00,NNW,345,4.0,13.0,48,0.00,,,0.20,,2013-10-11 19:52:00,
2013-10-11 20:02:00,54.0,35.0,-100.00,NNW,345,4.0,13.0,48,0.00,,,0.20,,2013-10-11 20:02:00,
2013-10-11 20:12:00,54.0,35.0,-100.00,NNW,345,4.0,13.0,48,0.00,,,0.20,,2013-10-11 20:12:00,
2013-10-11 20:43:00,56.0,33.0,-100.00,WSW,244,5.0,11.0,42,0.00,,,0.10,,2013-10-11 20:43:00,
2013-10-11 20:53:00,56.0,33.0,-100.00,WSW,244,5.0,11.0,42,0.00,,,0.10,,2013-10-11 20:53:00,
2013-10-11 21:02:00,56.0,33.0,-100.00,WSW,244,5.0,11.0,42,0.00,,,0.10,,2013-10-11 21:02:00,
2013-10-11 21:12:00,56.0,33.0,-100.00,WSW,244,5.0,11.0,42,0.00,,,0.10,,2013-10-11 21:12:00,
2013-10-11 21:43:00,57.0,29.0,-100.00,WNW,287,6.0,10.0,34,0.00,,,0.04,,2013-10-11 21:43:00,
2013-10-11 21:55:00,57.0,29.0,-100.00,WNW,287,6.0,10.0,34,0.00,,,0.04,,2013-10-11 21:55:00,
2013-10-11 22:04:00,57.0,29.0,-100.00,WNW,287,6.0,10.0,34,0.00,,,0.04,,2013-10-11 22:04:00,
2013-10-11 22:13:00,57.0,29.0,-100.00,WNW,287,6.0,10.0,34,0.00,,,0.04,,2013-10-11 22:13:00,
2013-10-11 22:54:00,57.0,27.0,-100.00,NW,318,6.0,13.0,31,0.00,,,0.01,,2013-10-11 22:54:00,
2013-10-11 23:03:00,57.0,27.0,-100.00,NW,318,6.0,13.0,31,0.00,,,0.01,,2013-10-11 23:03:00,
2013-10-11 23:12:00,57.0,27.0,-100.00,NW,318,6.0,13.0,31,0.00,,,0.01,,2013-10-11 23:12:00,
2013-10-11 23:42:00,57.0,26.0,-100.00,North,356,5.0,12.0,30,0.00,,,0.01,,2013-10-11 23:42:00,
2013-10-11 23:53:00,57.0,26.0,-100.00,North,356,5.0,12.0,30,0.00,,,0.01,,2013-10-11 23:53:00,